Weather History for Sheridan, WY

Change the Weather History Date:

Monday, May 12, 2014

  Actual Average Record
Temperature  
Mean Temperature 42 °F 51 °F  
Max Temperature 49 °F 66 °F 95 °F (1960)
Min Temperature 34 °F 37 °F 18 °F (1953)
Degree Days  
Heating Degree Days 23 14  
Month to date heating degree days 228 185  
Since 1 July heating degree days 7595 7286  
Cooling Degree Days 0 0  
Month to date cooling degree days 0 0  
Year to date cooling degree days 0 0  
Moisture  
Dew Point 25 °F    
Average Humidity 57    
Maximum Humidity 75    
Minimum Humidity 38    
Precipitation  
Precipitation T in 0.08 in 0.76 in (2010)
Month to date precipitation 1.05 0.91  
Year to date precipitation 6.13 4.59  
Sea Level Pressure  
Sea Level Pressure 30.40 in    
Wind  
Wind Speed 14 mph (WNW)    
Max Wind Speed 22 mph    
Max Gust Speed 27 mph    
Visibility 10 miles    
Events      
T = Trace of Precipitation, MM = Missing Value Source: NWS Daily Summary

Daily Weather History Graph

Daily Weather History Graph

Search for Another Location

Airport:

Trip Planner

Search our weather history database for the weather conditions in past years. The results will help you decide how hot, cold, wet, or windy it might be!

Date:

Astronomy

May. 12, 2014 Rise Set
Actual Time 5:42 AM MDT 8:26 PM MDT
Civil Twilight 5:09 AM MDT 8:59 PM MDT
Nautical Twilight 4:26 AM MDT 9:42 PM MDT
Astronomical Twilight 3:38 AM MDT 10:32 PM MDT
Moon 6:22 PM MDT (5/12) 4:30 AM MDT (5/12)
Length of Visible Light 15h 50m
Length of Day
14h 43m
Waxing Gibbous, 95% of the Moon is Illuminated
May 12
Waxing Gibbous
May 14
Full
May 21
Last Quarter
May 28
New
Jun 5
First Quarter

Hourly Weather History & Observations

Time (MDT) Temp. Windchill Dew Point Humidity Pressure Visibility Wind Dir Wind Speed Gust Speed Precip Events Conditions
12:53 AM 36.0 °F 28.0 °F 28.0 °F 73% 30.35 in 10.0 mi West 11.5 mph - N/A   Clear
1:53 AM 37.0 °F 28.9 °F 27.0 °F 67% 30.34 in 10.0 mi WNW 12.7 mph - N/A   Mostly Cloudy
2:53 AM 37.0 °F 27.7 °F 26.1 °F 65% 30.33 in 10.0 mi WNW 16.1 mph - N/A   Scattered Clouds
3:53 AM 37.0 °F 28.1 °F 26.1 °F 65% 30.35 in 10.0 mi NW 15.0 mph - N/A   Overcast
4:53 AM 36.0 °F 27.1 °F 26.1 °F 67% 30.37 in 10.0 mi NW 13.8 mph - N/A   Overcast
5:53 AM 36.0 °F 26.7 °F 27.0 °F 70% 30.39 in 10.0 mi NW 15.0 mph - N/A   Overcast
6:53 AM 36.0 °F 28.5 °F 27.0 °F 70% 30.40 in 10.0 mi WNW 10.4 mph - N/A   Overcast
7:53 AM 39.2 °F 29.3 °F 28.4 °F 65% 30.35 in 10.0 mi NW 20.7 mph - N/A   Overcast
8:53 AM 39.0 °F 29.6 °F 28.0 °F 65% 30.43 in 10.0 mi NW 18.4 mph - N/A   Overcast
9:53 AM 41.0 °F 31.9 °F 30.0 °F 65% 30.44 in 10.0 mi NW 19.6 mph - N/A   Overcast
10:53 AM 45.0 °F 38.2 °F 25.0 °F 46% 30.43 in 10.0 mi NW 15.0 mph 24.2 mph N/A   Mostly Cloudy
11:53 AM 44.1 °F 36.2 °F 23.0 °F 43% 30.43 in 10.0 mi NW 18.4 mph 24.2 mph N/A   Mostly Cloudy
12:53 PM 46.0 °F 38.3 °F 23.0 °F 40% 30.42 in 10.0 mi NW 20.7 mph - N/A   Mostly Cloudy
1:53 PM 46.0 °F 39.0 °F 24.1 °F 42% 30.41 in 10.0 mi NW 17.3 mph 24.2 mph N/A   Overcast
2:53 PM 48.9 °F - 24.1 °F 38% 30.41 in 10.0 mi NNW 13.8 mph - N/A   Mostly Cloudy
3:53 PM 48.9 °F - 25.0 °F 39% 30.40 in 10.0 mi North - - N/A   Overcast
4:53 PM 46.0 °F 40.6 °F 24.1 °F 42% 30.42 in 10.0 mi North 11.5 mph - 0.00 in   Overcast
5:37 PM 46.0 °F 39.3 °F 25.0 °F 44% 30.37 in 10.0 mi NW 16.1 mph 25.3 mph N/A   Overcast
5:53 PM 46.0 °F 40.6 °F 24.1 °F 42% 30.42 in 10.0 mi NNW 11.5 mph - N/A   Overcast
6:53 PM 45.0 °F 38.9 °F 24.1 °F 44% 30.42 in 10.0 mi NW 12.7 mph - N/A   Overcast
7:53 PM 43.0 °F 37.2 °F 27.0 °F 53% 30.43 in 10.0 mi West 10.4 mph - N/A   Mostly Cloudy
8:53 PM 37.4 °F 30.3 °F 26.6 °F 65% 30.38 in 10.0 mi West 10.4 mph - N/A   Scattered Clouds
9:53 PM 35.1 °F 27.4 °F 25.0 °F 67% 30.45 in 10.0 mi West 10.4 mph - N/A   Clear
10:53 PM 35.1 °F 27.4 °F 24.1 °F 64% 30.44 in 10.0 mi West 10.4 mph - N/A   Clear
11:53 PM 37.4 °F 29.3 °F 21.2 °F 52% 30.37 in 10.0 mi WSW 12.7 mph - N/A   Clear